Location: Recife
(8.0585°S, 34.8848°W)
Time: 21:28:27
(UTC-03:00)

A-11 Canister half - Pass Details

Date: 16 April 2026
Orbit: 1523 x 1684 km, 47.3° (Epoch: 16 May)

Event Time Altitude Azimuth Distance (km) Brightness Sun altitude
Rises 07:56:35 0° 345° (NNW) 4,838 11.7 36.3°
Reaches altitude 10° 08:00:24 10° 356° (N) 3,829 11.4 37.2°
Maximum altitude 08:08:14 28° 51° (NE) 2,652 12.0 39.0°
Drops below altitude 10° 08:15:51 10° 105° (ESE) 3,740 11.8 40.8°
Sets 08:19:28 0° 116° (ESE) 4,707 12.0 41.6°
